Total_Precipitation_Accumulation
1.43 1.16 1.87 1.97 1.82 1.60 1.48 1.48 1.62 1.70 1.68 1.56 1.54 1.45 1.31 1.12 0.97 0.87 0.78 0.76 0.72 0.69 0.67 0.68 0.72 0.75 0.74 0.73 0.78 0.84 0.88 0.78 0.77 0.77 0.68 0.69 0.83 0.83 0.80 1.01 1.47 1.86 1.22
0.87 0.92 1.78 1.97 1.74 1.57 1.43 1.47 1.70 1.76 1.79 1.68 1.53 1.41 1.26 1.05 0.92 0.83 0.81 0.73 0.70 0.67 0.67 0.66 0.69 0.77 0.81 0.75 0.80 0.87 0.85 0.82 0.87 0.91 0.92 0.94 0.88 0.87 0.85 0.97 1.35 1.68 1.24
0.68 0.80 1.36 1.87 1.72 1.61 1.56 1.54 1.63 1.72 1.70 1.50 1.42 1.33 1.21 1.04 0.90 0.83 0.76 0.69 0.66 0.69 0.62 0.59 0.64 0.73 0.78 0.82 0.81 0.79 0.74 0.80 0.89 1.07 1.46 1.93 1.38 1.02 1.03 0.97 1.16 1.20 1.12
0.72 0.78 1.04 1.68 1.73 1.67 1.63 1.60 1.58 1.56 1.54 1.38 1.30 1.23 1.12 1.09 0.96 0.90 0.80 0.73 0.63 0.57 0.57 0.60 0.59 0.64 0.69 0.72 0.78 0.75 0.69 0.79 0.89 1.08 1.52 1.98 1.81 1.37 1.22 1.16 1.25 1.12 1.10
0.76 0.84 1.17 1.74 1.72 1.67 1.66 1.65 1.70 1.57 1.51 1.34 1.16 1.13 1.08 1.08 0.97 0.93 0.83 0.72 0.64 0.61 0.57 0.60 0.60 0.64 0.72 0.72 0.69 0.69 0.71 0.84 1.02 0.94 1.21 1.66 2.10 1.80 1.35 1.35 1.43 1.25 1.19
0.81 0.90 1.20 1.61 1.66 1.64 1.64 1.65 1.61 1.48 1.40 1.28 1.11 1.08 1.11 1.11 1.02 0.95 0.86 0.77 0.69 0.69 0.64 0.63 0.66 0.72 0.75 0.73 0.72 0.79 0.89 0.92 0.89 0.98 1.25 1.60 2.07 1.88 1.48 1.41 1.32 1.40 1.30
0.83 0.87 1.15 1.54 1.60 1.61 1.52 1.37 1.38 1.39 1.29 1.15 1.08 1.04 1.06 1.03 0.99 0.93 0.96 0.89 0.79 0.74 0.69 0.69 0.70 0.70 0.73 0.76 0.80 0.88 0.96 0.90 0.87 1.10 1.21 1.55 1.67 1.63 1.43 1.34 1.39 1.58 1.47
0.92 0.85 0.97 1.31 1.42 1.42 1.36 1.31 1.36 1.33 1.23 1.08 1.00 0.98 0.98 0.99 0.90 0.83 0.82 0.80 0.80 0.79 0.75 0.71 0.71 0.63 0.66 0.78 0.85 0.94 1.05 0.95 0.85 0.96 1.01 1.33 1.67 1.68 1.36 1.30 1.38 1.56 1.64
1.24 1.06 0.95 1.03 1.19 1.27 1.36 1.37 1.45 1.45 1.34 1.17 1.00 0.98 0.96 0.87 0.72 0.66 0.72 0.76 0.76 0.75 0.76 0.74 0.74 0.68 0.70 0.84 0.91 1.01 1.10 0.97 0.94 0.94 0.84 1.31 1.75 1.59 1.30 1.17 1.21 1.37 1.49
1.23 1.20 1.08 1.02 1.07 1.12 1.22 1.43 1.60 1.70 1.73 1.45 1.11 1.03 0.93 0.77 0.67 0.70 0.70 0.75 0.80 0.84 0.82 0.83 0.84 0.82 0.89 0.92 0.96 0.99 0.97 0.83 0.86 0.85 0.98 1.25 1.68 1.57 1.26 1.09 1.08 1.07 1.16
0.85 0.92 0.98 0.99 1.05 1.04 1.06 1.21 1.50 1.69 1.82 1.49 1.07 1.09 0.94 0.68 0.67 0.74 0.74 0.92 1.01 1.02 1.01 1.04 1.05 1.06 1.05 0.99 1.03 1.05 0.84 0.61 0.74 0.90 1.08 1.34 1.69 1.61 1.27 1.08 0.90 0.89 0.93
0.67 0.64 0.66 0.68 0.75 0.83 0.90 1.16 1.44 1.49 1.61 1.31 1.09 1.12 1.02 1.05 0.98 0.77 0.78 1.05 1.20 1.24 1.16 1.15 1.20 1.12 0.95 0.79 0.82 0.83 0.68 0.65 0.73 0.84 1.01 1.45 1.77 1.63 1.30 1.08 0.87 0.84 0.84
0.51 0.49 0.47 0.49 0.51 0.61 0.86 1.15 1.40 1.49 1.56 1.52 1.52 1.35 1.27 1.20 1.01 0.83 0.80 0.86 0.96 1.05 0.99 1.10 1.10 0.94 0.86 0.75 0.74 0.69 0.62 0.73 0.90 0.86 1.05 1.49 1.81 1.69 1.44 1.22 0.96 0.91 0.90
0.54 0.52 0.45 0.37 0.39 0.49 0.65 0.86 1.18 1.34 1.42 1.41 1.38 1.14 1.18 1.17 0.99 0.92 1.01 1.05 1.01 1.00 1.15 1.20 1.17 1.12 0.95 0.78 0.76 0.80 0.76 0.74 0.90 0.99 1.16 1.33 1.72 1.90 1.69 1.44 1.21 1.13 1.07
0.63 0.71 0.66 0.51 0.46 0.51 0.57 0.60 0.76 0.93 1.02 1.27 1.34 1.02 0.97 0.98 1.03 1.06 0.97 1.11 1.18 1.17 1.18 1.19 1.11 1.07 1.08 0.95 0.96 1.01 0.99 0.84 0.89 0.95 1.08 1.13 1.42 1.89 2.02 1.81 1.59 1.39 1.27
0.48 0.59 0.64 0.62 0.65 0.64 0.56 0.48 0.48 0.55 0.68 0.83 0.87 0.78 0.78 0.80 0.91 1.09 1.03 1.01 1.09 1.27 1.33 1.28 1.18 1.24 1.25 1.08 1.08 1.16 1.12 1.02 1.03 1.05 1.13 1.03 0.98 1.26 1.68 1.90 1.89 1.74 1.53
0.40 0.43 0.50 0.56 0.62 0.67 0.72 0.67 0.53 0.53 0.60 0.63 0.64 0.67 0.72 0.71 0.84 1.01 0.97 0.89 0.89 1.05 1.25 1.39 1.42 1.42 1.27 1.18 1.17 1.20 1.12 1.10 1.09 1.22 1.22 1.17 0.99 0.86 1.07 1.35 1.62 1.75 1.75
0.39 0.37 0.42 0.43 0.50 0.61 0.74 0.79 0.74 0.69 0.65 0.60 0.56 0.51 0.53 0.53 0.62 0.82 0.90 0.83 0.83 1.02 1.24 1.45 1.57 1.63 1.48 1.43 1.47 1.38 1.21 1.17 1.16 1.27 1.27 1.26 1.26 1.02 0.87 0.87 1.03 1.30 1.51
0.36 0.36 0.36 0.39 0.41 0.50 0.62 0.68 0.66 0.63 0.60 0.59 0.57 0.46 0.43 0.44 0.54 0.75 0.95 1.00 1.00 1.11 1.25 1.30 1.52 1.63 1.70 1.64 1.50 1.39 1.30 1.31 1.30 1.23 1.35 1.31 1.29 1.22 1.05 0.78 0.70 0.79 1.05
0.35 0.35 0.36 0.37 0.38 0.41 0.44 0.51 0.55 0.50 0.50 0.56 0.54 0.53 0.55 0.61 0.67 0.85 1.09 1.19 1.31 1.35 1.43 1.59 1.89 1.91 1.81 1.83 1.66 1.46 1.33 1.35 1.39 1.42 1.39 1.33 1.37 1.24 1.09 0.92 0.79 0.58 0.67
0.30 0.30 0.33 0.36 0.36 0.34 0.30 0.35 0.40 0.39 0.48 0.56 0.62 0.67 0.73 0.75 0.82 1.03 1.25 1.50 1.64 1.54 1.56 1.78 2.05 2.22 2.07 1.94 2.00 1.88 1.73 1.54 1.50 1.46 1.42 1.44 1.44 1.36 1.25 1.20 1.07 0.91 0.76
0.18 0.22 0.28 0.29 0.28 0.26 0.24 0.28 0.36 0.42 0.48 0.62 0.77 0.87 0.90 0.88 0.94 0.99 1.20 1.41 1.50 1.57 1.63 1.75 1.99 2.33 2.21 1.99 2.16 2.51 2.31 2.08 1.67 1.36 1.47 1.51 1.53 1.46 1.34 1.19 1.16 1.10 1.04
0.17 0.18 0.22 0.26 0.27 0.26 0.31 0.48 0.73 0.97 1.06 1.08 1.09 1.23 1.31 1.28 1.24 1.21 1.24 1.39 1.48 1.62 1.72 1.77 1.80 2.09 2.23 2.11 2.12 2.61 2.55 2.33 2.16 1.71 1.39 1.43 1.52 1.58 1.55 1.43 1.30 1.24 1.18
0.16 0.20 0.22 0.24 0.30 0.32 0.47 0.77 1.14 1.45 1.53 1.53 1.66 1.69 1.75 1.68 1.54 1.53 1.52 1.62 1.58 1.55 1.58 1.61 1.60 1.82 2.18 2.28 2.13 2.00 1.98 2.06 2.36 2.10 1.58 1.41 1.43 1.44 1.55 1.45 1.46 1.48 1.50
0.22 0.27 0.31 0.36 0.48 0.64 0.78 0.94 1.22 1.39 1.48 1.62 1.77 1.92 2.05 2.15 2.10 2.03 1.97 1.84 1.67 1.58 1.60 1.65 1.65 1.74 1.88 2.05 2.02 1.91 1.90 1.86 1.74 1.91 1.87 1.63 1.44 1.33 1.42 1.48 1.53 1.55 1.64
0.37 0.42 0.45 0.56 0.64 0.72 0.83 0.95 1.09 1.15 1.29 1.47 1.62 1.80 1.96 2.07 2.07 2.01 1.88 1.67 1.51 1.46 1.52 1.66 1.69 1.74 1.74 1.82 1.81 1.73 1.73 1.71 1.63 1.78 1.75 1.74 1.72 1.37 1.27 1.34 1.42 1.48 1.48